This is the latest recevied weather packets stored in our database for station/object EA1IDU-12. If no packets are shown the sender has not sent any weather packets the latest 10 day(s).
| Time | Temp. | Humidity | Pressure | Rain* | Wind** | Luminosity | Snow |
|---|---|---|---|---|---|---|---|
| 1788510305 | 30.56° C | 26% | 1032.1 hPa | - | - | - | - |
| 1788509405 | 29.44° C | 29% | 1032.1 hPa | - | - | - | - |
| 1788508504 | 28.33° C | 30% | 1032.1 hPa | - | - | - | - |
| 1788507604 | 26.67° C | 33% | 1032 hPa | - | - | - | - |
| 1788506704 | 25° C | 34% | 1032.1 hPa | - | - | - | - |
| 1788505804 | 22.78° C | 36% | 1032.1 hPa | - | - | - | - |
| 1788504904 | 20.56° C | 37% | 1032 hPa | - | - | - | - |
| 1788504003 | 18.89° C | 39% | 1031.9 hPa | - | - | - | - |
| 1788503103 | 17.78° C | 40% | 1031.9 hPa | - | - | - | - |
| 1788502203 | 16.67° C | 40% | 1031.8 hPa | - | - | - | - |
| 1788501303 | 15.56° C | 41% | 1031.8 hPa | - | - | - | - |
| 1788500403 | 15.56° C | 41% | 1031.8 hPa | - | - | - | - |
| 1788499503 | 15.56° C | 41% | 1031.7 hPa | - | - | - | - |
| 1788498603 | 15.56° C | 42% | 1031.7 hPa | - | - | - | - |
| 1788497702 | 15.56° C | 42% | 1031.7 hPa | - | - | - | - |
| 1788496802 | 15.56° C | 42% | 1031.7 hPa | - | - | - | - |
| 1788495916 | 16.11° C | 42% | 1031.6 hPa | - | - | - | - |
| 1788495016 | 16.11° C | 42% | 1031.5 hPa | - | - | - | - |
| 1788494116 | 16.11° C | 42% | 1031.5 hPa | - | - | - | - |
| 1788493216 | 16.11° C | 42% | 1031.5 hPa | - | - | - | - |
| 1788492315 | 15.56° C | 42% | 1031.6 hPa | - | - | - | - |
| 1788491415 | 15.56° C | 42% | 1031.6 hPa | - | - | - | - |
| 1788490515 | 15.56° C | 42% | 1031.7 hPa | - | - | - | - |
| 1788489615 | 15.56° C | 41% | 1031.9 hPa | - | - | - | - |
| 1788488715 | 15.56° C | 41% | 1031.9 hPa | - | - | - | - |
* Rain since midnight (hover to see other rain measurements)
** Current wind speed in m/s (hover to see current wind gust speed)